Simultaneous Nadir Overpasses (SNOs) Predictions

Prediction of SNOs between GOES-16 and AQUA Satellite Orbit:

Table of predicted SNOs for the next 14.0 days since TLE Epoch: 10/9/2018
Index Date Time (GOES-16) GOES-16 Lat,Lon AQUA Lat,Lon Distance(km) Time Diff (sec)
1 10/10/2018 09:05:28 81.84, -22.50 81.84, -22.49 0.07 1
2 10/11/2018 11:27:37 81.84, -58.02 81.84, -58.01 0.07 1
3 10/12/2018 13:49:45 81.84, -93.55 81.84, -93.54 0.07 1
4 10/13/2018 16:11:54 81.84,-129.09 81.84,-129.09 0.07 1
5 10/14/2018 20:12:55 81.84, 170.66 81.84, 170.66 0.07 1
6 10/16/2018 00:13:56 81.84, 110.39 81.84, 110.39 0.07 1
7 10/17/2018 05:53:51 81.84, 25.41 81.84, 25.41 0.07 1
8 10/18/2018 13:12:38 81.84, -84.28 81.84, -84.28 0.07 1
9 10/19/2018 20:31:26 81.84, 166.00 81.84, 166.01 0.07 1
10 10/19/2018 22:10:19 81.84, 141.30 81.84, 141.31 0.07 1
11 10/21/2018 07:07:59 81.84, 6.87 81.84, 6.88 0.07 1
12 10/22/2018 19:23:25 81.84,-176.98 81.84,-176.97 0.07 1




NCC Satellite Simultaneous Nadir Overpasses (SNOs) Prediction Service
